Weather History for HKNC - October, 2012

Change the Weather History Date:

Thursday, October 18, 2012

  Actual Average Record
Temperature  
Mean Temperature 68 °F -  
Max Temperature 77 °F - - ()
Min Temperature 60 °F - - ()
Cooling Degree Days 4    
Growing Degree Days 18 (Base 50)    
Moisture  
Dew Point 56 °F    
Average Humidity 70    
Maximum Humidity 94    
Minimum Humidity 44    
Precipitation  
Precipitation 0.00 in - - ()
Sea Level Pressure  
Sea Level Pressure 30.14 in    
Wind  
Wind Speed 5 mph ()    
Max Wind Speed 12 mph    
Max Gust Speed -    
Visibility 6.2 miles    
Events Rain    
T = Trace of Precipitation, MM = Missing Value Source: Averaged Metar Reports

Daily Weather History Graph

Daily Weather History Graph

Search for Another Location

Airport or City:

Trip Planner

Search our weather history database for the weather conditions in past years. The results will help you decide how hot, cold, wet, or windy it might be!

Date:

Astronomy

Oct. 18, 2012 Rise Set
Actual Time 6:13 AM EAT 6:22 PM EAT
Civil Twilight 5:52 AM EAT 6:43 PM EAT
Nautical Twilight 5:28 AM EAT 7:07 PM EAT
Astronomical Twilight 5:04 AM EAT 7:32 PM EAT
Moon 8:48 AM EAT (10/18) 9:21 PM EAT (10/18)
Length of Visible Light 12h 50m
Length of Day
12h 08m
Waxing Crescent, 12% of the Moon is Illuminated
Oct 18
Waxing Crescent
Oct 22
First Quarter
Oct 29
Full
Nov 7
Last Quarter
Nov 14
New

Hourly Weather History & Observations

Time (EAT) Temp. Dew Point Humidity Pressure Visibility Wind Dir Wind Speed Gust Speed Precip Events Conditions
12:00 AM 64.4 °F 55.4 °F 73% 30.15 in 6.2 mi ENE 6.9 mph - N/A   Mostly Cloudy
1:00 AM 62.6 °F 55.4 °F 77% 3.01 in 6.2 mi NE 6.9 mph - N/A   Mostly Cloudy
2:00 AM 62.6 °F 55.4 °F 77% 30.15 in 6.2 mi ENE 3.5 mph - N/A   Mostly Cloudy
3:00 AM 62.6 °F 55.4 °F 77% 30.15 in 6.2 mi ENE 5.8 mph - N/A   Mostly Cloudy
4:00 AM 60.8 °F 57.2 °F 88% 30.15 in 6.2 mi ENE 4.6 mph - N/A   Mostly Cloudy
5:00 AM 60.8 °F 57.2 °F 88% 30.15 in 6.2 mi East 3.5 mph - N/A   Mostly Cloudy
6:00 AM 60.8 °F 57.2 °F 88% 30.15 in 6.2 mi East 5.8 mph - N/A   Mostly Cloudy
7:00 AM 62.6 °F 59.0 °F 88% 30.15 in 6.2 mi ENE 6.9 mph - N/A   Mostly Cloudy
8:00 AM 60.8 °F 57.2 °F 88% 30.15 in 6.2 mi ENE 4.6 mph - N/A   Mostly Cloudy
9:00 AM 62.6 °F 57.2 °F 82% 30.21 in 6.2 mi NNE 4.6 mph - N/A   Mostly Cloudy
10:00 AM 66.2 °F 59.0 °F 78% 30.21 in 6.2 mi NE 3.5 mph - N/A   Mostly Cloudy
11:00 AM 69.8 °F 55.4 °F 60% 30.18 in 6.2 mi East 8.1 mph - N/A   Mostly Cloudy
12:00 PM 71.6 °F 55.4 °F 57% 30.15 in 6.2 mi East 6.9 mph - N/A   Mostly Cloudy
1:00 PM 73.4 °F 55.4 °F 53% 30.15 in 6.2 mi ESE 5.8 mph - N/A   Mostly Cloudy
2:00 PM 75.2 °F 53.6 °F 47% 30.09 in 6.2 mi ENE 9.2 mph - N/A   Scattered Clouds
3:00 PM 77.0 °F 53.6 °F 44% 30.06 in 6.2 mi SE 4.6 mph - N/A   Scattered Clouds
4:00 PM 77.0 °F 53.6 °F 44% 30.06 in 6.2 mi NE 11.5 mph - N/A   Scattered Clouds
5:00 PM 75.2 °F 53.6 °F 47% 30.06 in 6.2 mi ESE 6.9 mph - N/A   Scattered Clouds
6:00 PM 73.4 °F 51.8 °F 47% 30.06 in 6.2 mi ENE 11.5 mph - N/A   Mostly Cloudy
10:00 PM 66.2 °F 59.0 °F 78% 30.15 in 6.2 mi Calm Calm - N/A   Mostly Cloudy
11:00 PM 62.6 °F 60.8 °F 94% 30.15 in 6.2 mi Calm Calm - N/A Rain Light Rain